Flag for U.S.A. Weather past 2 weeks in Appleton, Wisconsin, U.S.A.

Now
64 °F

Scattered clouds.


Feels Like: 64 °F
Forecast: 44 / 76 °F
Wind: 14 mph from Southwest

Location: Appleton / Outagamie

Current Time: May 23, 2015 at 10:30:07 AM

Latest Report: May 23, 2015 at 9:45 AM


Visibility: 10 mi

Pressure: 30.32 "Hg

Humidity: 34%

Dew point: 36 °F

Location of AppletonLocation

Historic Weather in Appleton — Graph

°F

Appleton temperature yesterday

Maximum temperature yesterday: 66 °F (at 3:45 PM)
Minimum temperature yesterday: 36 °F (at 3:55 AM)
Average temperature yesterday: 49 °F

Past Weeks' High & Low Weather Summary

 TemperatureHumidityPressure
High75 °F (May 8, 12:45 PM)100% (May 11, 12:15 AM)30.76 "Hg (May 11, 12:15 AM)
Low32 °F (May 13, 3:55 AM)23% (May 21, 3:45 PM)29.66 "Hg (May 11, 4:45 PM)
Average52 °F71%30.07 "Hg
* Reported May 8 8:15 AM — May 23 8:45 AM, Appleton, Weather by CustomWeather, © 2015

Note: Actual official high and low records may vary slightly from our data, if they occured in-between our weather recording intervals... More about our weather records

Advertising

Appleton weather history for previous 24 hours

 ConditionsComfort  
Time TempWeatherWind HumidityBarometerVisibility
8:45 AM
Sat, May 23
59 °FScattered clouds.9 mph39%30.33 "Hg10 mi
7:45 AM55 °FScattered clouds.9 mph41%30.33 "Hg10 mi
6:45 AM46 °FScattered clouds.5 mph62%30.31 "Hg10 mi
5:45 AM45 °FPassing clouds.5 mph57%30.30 "Hg10 mi
5:15 AM43 °FClear.No wind61%30.29 "Hg10 mi
4:55 AM43 °FClear.No wind61%30.29 "Hg10 mi
4:35 AM43 °FClear.6 mph61%30.29 "Hg10 mi
4:15 AM45 °FClear.7 mph57%30.29 "Hg10 mi
3:55 AM45 °FClear.6 mph57%30.29 "Hg10 mi
3:35 AM43 °FClear.5 mph61%30.28 "Hg10 mi
3:15 AM43 °FClear.5 mph61%30.28 "Hg10 mi
2:55 AM45 °FClear.5 mph53%30.28 "Hg10 mi
2:35 AM45 °FClear.5 mph57%30.27 "Hg10 mi
2:15 AM45 °FClear.5 mph53%30.27 "Hg10 mi
1:55 AM45 °FClear.7 mph53%30.27 "Hg10 mi
1:35 AM46 °FClear.7 mph50%30.27 "Hg10 mi
12:55 AM48 °FClear.7 mph43%30.26 "Hg10 mi
12:15 AM50 °FClear.7 mph43%30.26 "Hg10 mi
11:55 PM
Fri, May 22
50 °FClear.7 mph47%30.26 "Hg10 mi
11:35 PM50 °FClear.8 mph50%30.27 "Hg10 mi
11:15 PM50 °FClear.8 mph54%30.26 "Hg10 mi
10:45 PM52 °FPassing clouds.8 mph50%30.26 "Hg10 mi
9:45 PM54 °FPassing clouds.10 mph47%30.26 "Hg10 mi
8:45 PM55 °FScattered clouds.10 mph44%30.24 "Hg10 mi
7:45 PM61 °FScattered clouds.12 mph34%30.23 "Hg10 mi
5:45 PM66 °FScattered clouds.10 mph30%30.22 "Hg10 mi
4:45 PM66 °FScattered clouds.10 mph30%30.22 "Hg10 mi
3:45 PM66 °FScattered clouds.8 mph28%30.22 "Hg10 mi
2:45 PM64 °FPassing clouds.7 mph26%30.23 "Hg10 mi
1:45 PM63 °FSunny.8 mph30%30.24 "Hg10 mi
12:45 PM63 °FSunny.6 mph30%30.24 "Hg10 mi
10:45 AM57 °FSunny.No wind36%30.23 "Hg10 mi
Weather by CustomWeather, © 2015

See weather overviewHow to use our weather pages